Location: Palo Alto
(37.4420°N, 122.1420°W)
Time: 17:06:44
(UTC-07:00)

ARGOS - Visible Passes

Search period start: 28 May 2017 00:00
Search period end: 07 June 2017 00:00
Orbit: 821 x 834 km, 98.6° (Epoch: 27 May)

Date Brightness Start Highest point End Pass type
(mag) Time Alt. Az. Time Alt. Az. Time Alt. Az.
28 May 4.8 21:02:55 10° ESE 21:06:27 18° ENE 21:10:00 10° NNE visible
28 May 3.6 22:43:52 32° SSW 22:46:11 57° W 22:51:32 10° NNW visible
29 May 3.1 22:25:02 33° S 22:27:37 85° WSW 22:33:04 10° NNW visible
30 May 3.2 22:06:12 28° SSE 22:09:06 66° ENE 22:14:29 10° N visible
30 May 5.4 23:47:43 12° WSW 23:49:45 14° W 23:52:32 10° WNW visible
31 May 3.7 21:47:21 21° SE 21:50:37 44° ENE 21:55:45 10° N visible
31 May 5.0 23:28:53 17° SW 23:31:00 21° W 23:35:06 10° NW visible
01 Jun 4.2 21:28:31 15° ESE 21:32:12 30° ENE 21:36:51 10° N visible
01 Jun 4.5 23:10:02 23° SW 23:12:19 32° W 23:17:08 10° NW visible
02 Jun 4.7 21:09:52 10° ESE 21:13:49 21° ENE 21:17:47 10° NNE visible
02 Jun 3.9 22:51:13 28° SSW 22:53:40 48° W 22:58:55 10° NNW visible
03 Jun 5.1 20:52:42 10° E 20:55:30 14° ENE 20:58:19 10° NNE visible
03 Jun 3.3 22:32:22 30° S 22:35:05 72° WSW 22:40:31 10° NNW visible
04 Jun 3.1 22:13:33 28° SSE 22:16:32 78° ENE 22:21:58 10° N visible
04 Jun 5.6 23:55:31 10° WSW 23:57:19 12° W 23:59:07 10° WNW visible
05 Jun 3.5 21:54:43 22° SE 21:58:03 52° ENE 22:03:18 10° N visible
05 Jun 5.2 23:36:14 14° WSW 23:38:33 18° W 23:42:12 10° NW visible
06 Jun 4.0 21:35:54 16° SE 21:39:36 35° ENE 21:44:30 10° N visible
06 Jun 4.7 23:17:25 20° SW 23:19:50 27° W 23:24:24 10° NW visible
